Regional Weather Roundup
Issued by NWS

Home | Current Version | Previous Version | Graphics & Text | Print | Product List | Glossary Off
Versions: 1 2 3 4 5 6 7 8 9 10 11 12 13 14 15 16 17 18 19 20 21 22 23 24 25 26 27 28 29 30 31 32 33 34 35 36 37 38 39 40 41 42 43 44 45 46 47 48 49 50

000
ASUS43 KTOP 221759
RWRKS

WEATHER ROUNDUP FOR KANSAS
NATIONAL WEATHER SERVICE GOODLAND KS
100 PM CDT WED MAR 22 2017

NOTE:  "FAIR" INDICATES FEW OR NO CLOUDS BELOW 12,000 FEET WITH NO
SIGNIFICANT WEATHER AND/OR OBSTRUCTIONS TO VISIBILITY.

KSZ001>006-013>018-027>032-041>047-221900-
NORTHWEST KANSAS

CITY           SKY/WX    TMP DP  RH WIND       PRES   REMARKS
GOODLAND       CLOUDY    50  32  50 S26G32    30.10F
6HR MIN TEMP:  37; 6HR MAX TEMP:  50;

HAYS             N/A     48  27  44 SE16      30.22F
HILL CITY      CLOUDY    49  27  42 S15       30.20F
6HR MIN TEMP:  34; 6HR MAX TEMP:  49;

RUSSELL        CLOUDY    48  26  42 SE12      30.22F
6HR MIN TEMP:  40; 6HR MAX TEMP:  48;

$$

KSZ061>065-074>080-084>089-221900-
SOUTHWEST KANSAS

CITY           SKY/WX    TMP DP  RH WIND       PRES   REMARKS
DODGE CITY     CLOUDY    50  29  44 SE13      30.20F
6HR MIN TEMP:  42; 6HR MAX TEMP:  50;

ELKHART          N/A     55  34  45 SE16        N/A
GARDEN CITY    CLOUDY    51  33  50 SE15G21   30.16F
6HR MIN TEMP:  41; 6HR MAX TEMP:  51;

GREAT BEND     CLOUDY    50  27  40 SE10G17   30.23F
LIBERAL        CLOUDY    54  34  47 SE7       30.18F
$$

KSZ066>073-081>083-090>101-221900-
SOUTHEAST KANSAS

CITY           SKY/WX    TMP DP  RH WIND       PRES   REMARKS
CHANUTE        CLOUDY    56  26  31 E14       30.27F
6HR MIN TEMP:  46; 6HR MAX TEMP:  57;

COFFEYVILLE    CLOUDY    55  35  47 E15       30.26F
6HR MIN TEMP:  50; 6HR MAX TEMP:  56;

HUTCHINSON     CLOUDY    54  28  36 SE9       30.24F
6HR MIN TEMP:  43; 6HR MAX TEMP:  54;

MEDICINE LODGE   N/A     50  31  48 E8        30.21F
PARSONS        CLOUDY    56  30  37 VRB6      30.27F
6HR MIN TEMP:  48; 6HR MAX TEMP:  56;

WICHITA INTL   CLOUDY    53  31  42 E17       30.23F
6HR MIN TEMP:  46; 6HR MAX TEMP:  53;

WICHITA JABRA  CLOUDY    52  31  44 E14       30.23F
6HR MIN TEMP:  45; 6HR MAX TEMP:  53;

WICHITA MCCONL CLOUDY    53  29  40 E14       30.22F
WINFIELD       CLOUDY    55  35  47 E10       30.23F
6HR MIN TEMP:  48; 6HR MAX TEMP:  55;

$$

KSZ007>012-019>026-033>040-048>060-102>105-221900-
NORTHEAST KANSAS

CITY           SKY/WX    TMP DP  RH WIND       PRES   REMARKS
CONCORDIA      CLOUDY    50  22  33 E17G24    30.26F
6HR MIN TEMP:  35; 6HR MAX TEMP:  50;

EMPORIA        SUNNY     56  26  31 E18       30.26F
6HR MIN TEMP:  41; 6HR MAX TEMP:  56;

LAWRENCE       CLOUDY    54  22  28 E9        30.33F
6HR MIN TEMP:  36; 6HR MAX TEMP:  54;

MANHATTAN      MOSUNNY   54  25  32 E13G20    30.29F
6HR MIN TEMP:  39; 6HR MAX TEMP:  54;

OLATHE IND     MOSUNNY   51  23  33 E10G20    30.34F
6HR MIN TEMP:  38; 6HR MAX TEMP:  52;

OLATHE EXE     SUNNY     51  24  34 SE14G22   30.33F
6HR MIN TEMP:  37; 6HR MAX TEMP:  52;

SALINA         CLOUDY    56  24  29 E16       30.26F
6HR MIN TEMP:  43; 6HR MAX TEMP:  56;

TOPEKA BILLARD CLOUDY    53  22  29 E14       30.31F
6HR MIN TEMP:  38; 6HR MAX TEMP:  55;

TOPEKA FORBES  PTSUNNY   54  23  30 E12       30.30F
6HR MIN TEMP:  39; 6HR MAX TEMP:  55;

$$



USA.gov is the U.S. government's official web portal to all federal, state and local government web resources and services.